Regional Weather Roundup
Issued by NWS Cleveland, OH

Home | Current Version | Previous Version | Text Only | Print | Product List | Glossary On
Versions: 1 2 3 4 5 6 7 8 9 10 11 12 13 14 15 16 17 18 19 20 21 22 23 24 25 26 27 28 29 30 31 32 33 34 35 36 37 38 39 40 41 42 43 44 45 46 47 48 49 50
000
ASUS41 KCLE 222112
RWRCLE
OHIO REGIONAL WEATHER ROUNDUP
NATIONAL WEATHER SERVICE WILMINGTON, OH
500 PM EDT SUN APR 22 2018

NOTE: "FAIR" INDICATES FEW OR NO CLOUDS BELOW 12,000 FEET WITH NO
SIGNIFICANT WEATHER AND/OR OBSTRUCTIONS TO VISIBILITY.

OHZ001>008-015>018-024>027-034-035-043-044-222200-
   NORTHWEST OHIO

CITY           SKY/WX    TMP DP  RH WIND       PRES   REMARKS
DEFIANCE       NOT AVBL
FINDLAY        FAIR      62  26  25 E17       30.27F
TOLEDO EXPRESS FAIR      59  19  21 E18G28    30.32F
TOLEDO EXEC    FAIR      57  22  25 NE16G24   30.34F
LIMA           FAIR      63  33  32 NE14      30.25F
$$

OHZ009>014-019>023-028>033-038-089-222200-
   NORTHEAST OHIO

CITY           SKY/WX    TMP DP  RH WIND       PRES   REMARKS
CLE-HOPKINS    PTSUNNY   57  26  30 NE20G26   30.33F
CLE-LAKEFRONT  FAIR      47  35  63 NE17      30.31F
CUY CO. ARPT   MOSUNNY   59  28  31 NE16G23   30.31F
LORAIN-ELYRIA  FAIR      55  22  27 NE23      30.31F
ASHTABULA      FAIR      58  22  24 NE10G18   30.33F
AKRON-CANTON   FAIR      67  25  20 E12       30.27F
WOOSTER        FAIR      65  25  22 NE13      30.27F
MANSFIELD      FAIR      65  28  24 NE15      30.26F
YOUNGSTOWN     FAIR      66  18  15 CALM      30.28F
$$

OHZ042-051>053-060>062-070>072-077>081-222200-
  SOUTHWEST OHIO

CITY           SKY/WX    TMP DP  RH WIND       PRES   REMARKS
CINC-COVINGTON CLOUDY    64  31  28 NE13      30.19F
CINC-LUNKEN    FAIR      63  36  36 NE9       30.20F
HAMILTON       FAIR      66  29  24 E12       30.21F
DAYTON         PTSUNNY   64  30  27 E10       30.23F
WRIGHT-PAT AFB FAIR      66  30  26 NE8       30.21F
DAYTON GENERAL FAIR      68  25  19 E10G20    30.21F
WILMINGTON     FAIR      64  27  24 E10       30.21F
$$

OHZ036-037-039>041-045>050-054>059-063>069-073>076-082>088-222200-
  CENTRAL AND SOUTHEAST OHIO

CITY           SKY/WX    TMP DP  RH WIND       PRES   REMARKS
COLUMBUS       CLOUDY    68  25  19 E9        30.23F
OSU AIRPORT    FAIR      66  26  22 NE10      30.23F
BOLTON FIELD   SUNNY     64  32  29 NE6       30.23F
RICKENBACK AFB FAIR      65  29  25 E7        30.22F
NEWARK         FAIR      66  26  22 E6        30.22F
MARION         FAIR      65  26  23 E13       30.25F
LANCASTER      FAIR      65  31  28 NE12      30.23F
ZANESVILLE     FAIR      68  27  21 E6        30.23F
NEW PHILLY     FAIR      69  28  21 VRB6      30.24F
$$



USA.gov is the U.S. government's official web portal to all federal, state and local government web resources and services.